{"data":{"norad_id":58949,"epoch":"2026-09-20T00:38:50.252928Z","epoch_age_seconds":196522,"freshness":"STALE","line1":"1 58949U 24027U   26263.02697052  .00000937  00000+0  38876-4 0  9994","line2":"2 58949  53.1614 126.1350 0001392  82.1185 277.9976 15.34391701147097","mean_motion":15.34391701,"eccentricity":0.0001392,"inclination_deg":53.1614,"raan_deg":126.135,"arg_perigee_deg":82.1185,"mean_anomaly_deg":277.9976,"bstar":3.8876e-5,"rev_number":14709,"period_min":93.848265671765,"perigee_km":461.7756583002,"apogee_km":463.68015509023,"semimajor_km":6840.8649066952,"source":"CELESTRAK","updated_at":"2026-09-21T09:00:33.999794Z"}}